When you browse on this site, cookies collect data to enhance your experience and personalize the content and advertising you see.
Visit our Privacy Policy to learn more. By continuing to use the site, you agree to this use of cookies and data.
  • en France
  • Liste des pays
  • À 7 jours
  • Température de l'eau
  • Carte météo
  • Widgets météo
  • user-avatar
    Se connecter

    Météo par heure à Dawson

    Ce jour, 5 Avril, Dimanche

    Heure Température Précipitation Vent Pression Humidité
    00:00 -8°C° 0.1 mm 1 m/s 682 mmHg 97%
    01:00 -8°C° 0.1 mm 1 m/s 681 mmHg 97%
    02:00 -8°C° 0.1 mm 1 m/s 680 mmHg 97%
    03:00 -9°C° 0.1 mm 1 m/s 680 mmHg 97%
    04:00 -9°C° 0 mm 1 m/s 679 mmHg 97%
    05:00 -9°C° 0 mm 1 m/s 679 mmHg 96%
    06:00 -9°C° 0 mm 1 m/s 678 mmHg 96%
    07:00 -8°C° 0.3 mm 1 m/s 678 mmHg 95%
    08:00 -7°C° 0.3 mm 1 m/s 678 mmHg 95%
    09:00 -6°C° 0.3 mm 1 m/s 677 mmHg 94%
    10:00 -4°C° 0.3 mm 1 m/s 677 mmHg 95%
    11:00 -4°C° 0.3 mm 0 m/s 677 mmHg 96%
    12:00 -3°C° 0.3 mm 0 m/s 676 mmHg 97%
    13:00 -3°C° 0.2 mm 0 m/s 676 mmHg 96%
    14:00 -2°C° 0.2 mm 0 m/s 675 mmHg 96%
    15:00 -2°C° 0.2 mm 0 m/s 675 mmHg 96%
    16:00 -2°C° 0.1 mm 0 m/s 675 mmHg 95%
    17:00 -3°C° 0.1 mm 0 m/s 675 mmHg 95%
    18:00 -3°C° 0.1 mm 0 m/s 675 mmHg 94%
    19:00 -4°C° 0.2 mm 0 m/s 675 mmHg 95%
    20:00 -4°C° 0.2 mm 1 m/s 674 mmHg 96%
    21:00 -6°C° 0.2 mm 1 m/s 674 mmHg 97%
    22:00 -6°C° 0.4 mm 1 m/s 674 mmHg 95%
    23:00 -8°C° 0.4 mm 2 m/s 675 mmHg 93%

    Demain, 6 Avril, Lundi

    Heure Température Précipitation Vent Pression Humidité
    00:00 -10°C° 0.4 mm 3 m/s 675 mmHg 91%
    01:00 -10°C° 0.1 mm 2 m/s 675 mmHg 92%
    02:00 -12°C° 0.1 mm 2 m/s 675 mmHg 93%
    03:00 -13°C° 0.1 mm 2 m/s 675 mmHg 94%
    04:00 -13°C° 0.1 mm 2 m/s 675 mmHg 94%
    05:00 -12°C° 0.1 mm 1 m/s 675 mmHg 94%
    06:00 -12°C° 0.1 mm 1 m/s 675 mmHg 94%
    07:00 -13°C° 0.1 mm 2 m/s 675 mmHg 92%
    08:00 -12°C° 0.1 mm 2 m/s 676 mmHg 89%
    09:00 -12°C° 0.1 mm 2 m/s 676 mmHg 87%
    10:00 -10°C° 0.1 mm 2 m/s 677 mmHg 86%
    11:00 -12°C° 0.1 mm 3 m/s 677 mmHg 85%
    12:00 -10°C° 0.1 mm 3 m/s 678 mmHg 84%
    13:00 -10°C° 0.1 mm 3 m/s 678 mmHg 82%
    14:00 -10°C° 0.1 mm 3 m/s 679 mmHg 80%
    15:00 -10°C° 0.1 mm 3 m/s 679 mmHg 78%
    16:00 -10°C° 0 mm 3 m/s 680 mmHg 80%
    17:00 -10°C° 0 mm 2 m/s 680 mmHg 83%
    18:00 -12°C° 0 mm 2 m/s 681 mmHg 85%
    19:00 -13°C° 0 mm 2 m/s 681 mmHg 86%
    20:00 -15°C° 0 mm 2 m/s 682 mmHg 87%
    21:00 -15°C° 0 mm 1 m/s 682 mmHg 89%
    22:00 -16°C° 0 mm 1 m/s 683 mmHg 89%
    23:00 -17°C° 0 mm 1 m/s 683 mmHg 89%

    Après-demain, 7 Avril, Mardi

    Heure Température Précipitation Vent Pression Humidité
    00:00 -18°C° 0 mm 1 m/s 684 mmHg 89%
    01:00 -18°C° 0 mm 1 m/s 684 mmHg 89%
    02:00 -19°C° 0 mm 1 m/s 685 mmHg 88%
    03:00 -20°C° 0 mm 0 m/s 685 mmHg 87%
    04:00 -19°C° 0 mm 0 m/s 685 mmHg 87%
    05:00 -19°C° 0 mm 0 m/s 686 mmHg 87%
    06:00 -19°C° 0 mm 0 m/s 686 mmHg 88%
    07:00 -17°C° 0 mm 0 m/s 686 mmHg 85%
    08:00 -15°C° 0 mm 0 m/s 687 mmHg 82%
    09:00 -13°C° 0 mm 1 m/s 687 mmHg 80%
    10:00 -12°C° 0 mm 1 m/s 687 mmHg 77%
    11:00 -11°C° 0 mm 1 m/s 687 mmHg 75%
    12:00 -9°C° 0 mm 1 m/s 688 mmHg 73%
    13:00 -9°C° 0.1 mm 1 m/s 687 mmHg 76%
    14:00 -9°C° 0.1 mm 1 m/s 687 mmHg 80%
    15:00 -8°C° 0.1 mm 1 m/s 687 mmHg 83%
    16:00 -9°C° 0.2 mm 1 m/s 687 mmHg 85%
    17:00 -9°C° 0.2 mm 1 m/s 687 mmHg 88%
    18:00 -9°C° 0.2 mm 1 m/s 687 mmHg 90%
    19:00 -11°C° 0.1 mm 0 m/s 686 mmHg 91%
    20:00 -13°C° 0.1 mm 0 m/s 686 mmHg 92%
    21:00 -14°C° 0.1 mm 0 m/s 686 mmHg 94%
    22:00 -15°C° 0 mm 0 m/s 686 mmHg 94%
    23:00 -15°C° 0 mm 0 m/s 686 mmHg 95%

    8 Avril, Mercredi

    Heure Température Précipitation Vent Pression Humidité
    00:00 -16°C° 0 mm 0 m/s 686 mmHg 96%
    01:00 -16°C° 0 mm 0 m/s 686 mmHg 96%
    02:00 -17°C° 0 mm 0 m/s 686 mmHg 96%
    03:00 -17°C° 0 mm 0 m/s 686 mmHg 97%
    04:00 -18°C° 0 mm 0 m/s 685 mmHg 97%
    05:00 -18°C° 0 mm 0 m/s 685 mmHg 96%
    06:00 -18°C° 0 mm 0 m/s 685 mmHg 96%
    07:00 -15°C° 0 mm 0 m/s 685 mmHg 94%
    08:00 -13°C° 0 mm 0 m/s 685 mmHg 91%
    09:00 -11°C° 0 mm 0 m/s 685 mmHg 89%
    10:00 -10°C° 0 mm 1 m/s 684 mmHg 85%
    11:00 -9°C° 0 mm 1 m/s 684 mmHg 82%
    12:00 -7°C° 0 mm 1 m/s 684 mmHg 79%
    13:00 -7°C° 0 mm 1 m/s 684 mmHg 76%
    14:00 -7°C° 0 mm 1 m/s 683 mmHg 74%
    15:00 -7°C° 0 mm 2 m/s 683 mmHg 71%
    16:00 -7°C° 0 mm 1 m/s 683 mmHg 76%
    17:00 -7°C° 0 mm 1 m/s 684 mmHg 80%
    18:00 -8°C° 0 mm 1 m/s 684 mmHg 84%
    19:00 -9°C° 0 mm 1 m/s 684 mmHg 85%
    20:00 -11°C° 0 mm 1 m/s 685 mmHg 86%
    21:00 -12°C° 0 mm 1 m/s 685 mmHg 87%
    22:00 -13°C° 0 mm 1 m/s 685 mmHg 87%
    23:00 -14°C° 0 mm 1 m/s 686 mmHg 87%

    9 Avril, Jeudi

    Heure Température Précipitation Vent Pression Humidité
    00:00 -15°C° 0 mm 1 m/s 686 mmHg 88%
    01:00 -16°C° 0 mm 1 m/s 687 mmHg 88%
    02:00 -17°C° 0 mm 1 m/s 687 mmHg 88%
    03:00 -19°C° 0 mm 1 m/s 687 mmHg 88%
    04:00 -19°C° 0 mm 1 m/s 688 mmHg 88%
    05:00 -19°C° 0 mm 1 m/s 688 mmHg 88%
    06:00 -19°C° 0 mm 0 m/s 689 mmHg 88%
    07:00 -17°C° 0 mm 0 m/s 689 mmHg 86%
    08:00 -14°C° 0 mm 0 m/s 690 mmHg 84%
    09:00 -12°C° 0 mm 0 m/s 690 mmHg 82%
    10:00 -10°C° 0 mm 0 m/s 691 mmHg 80%
    11:00 -9°C° 0 mm 1 m/s 691 mmHg 77%
    12:00 -8°C° 0 mm 1 m/s 691 mmHg 75%
    13:00 -8°C° 0 mm 1 m/s 691 mmHg 72%
    14:00 -7°C° 0 mm 1 m/s 691 mmHg 70%
    15:00 -8°C° 0 mm 2 m/s 692 mmHg 67%
    16:00 -8°C° 0 mm 1 m/s 692 mmHg 72%
    17:00 -8°C° 0 mm 1 m/s 692 mmHg 77%
    18:00 -8°C° 0 mm 1 m/s 692 mmHg 81%
    19:00 -10°C° 0 mm 0 m/s 692 mmHg 82%
    20:00 -12°C° 0 mm 0 m/s 691 mmHg 83%
    21:00 -14°C° 0 mm 0 m/s 691 mmHg 84%
    22:00 -15°C° 0 mm 0 m/s 692 mmHg 85%
    23:00 -16°C° 0 mm 0 m/s 692 mmHg 86%

    10 Avril, Vendredi

    Heure Température Précipitation Vent Pression Humidité
    00:00 -16°C° 0 mm 0 m/s 692 mmHg 87%
    01:00 -17°C° 0 mm 0 m/s 692 mmHg 87%
    02:00 -18°C° 0 mm 0 m/s 692 mmHg 88%
    03:00 -18°C° 0 mm 0 m/s 692 mmHg 89%
    04:00 -18°C° 0 mm 0 m/s 692 mmHg 90%
    05:00 -18°C° 0 mm 0 m/s 692 mmHg 91%
    06:00 -18°C° 0 mm 0 m/s 692 mmHg 91%
    07:00 -15°C° 0 mm 1 m/s 692 mmHg 89%
    08:00 -13°C° 0 mm 1 m/s 692 mmHg 87%
    09:00 -11°C° 0 mm 1 m/s 692 mmHg 85%
    10:00 -10°C° 0 mm 1 m/s 692 mmHg 82%
    11:00 -8°C° 0 mm 1 m/s 692 mmHg 80%
    12:00 -7°C° 0 mm 1 m/s 691 mmHg 78%
    13:00 -6°C° 0 mm 1 m/s 691 mmHg 77%
    14:00 -4°C° 0 mm 1 m/s 691 mmHg 76%
    15:00 -6°C° 0 mm 2 m/s 690 mmHg 75%
    16:00 -4°C° 0 mm 1 m/s 690 mmHg 78%
    17:00 -4°C° 0 mm 1 m/s 690 mmHg 82%
    18:00 -4°C° 0 mm 1 m/s 689 mmHg 85%
    19:00 -6°C° 0 mm 1 m/s 690 mmHg 86%
    20:00 -7°C° 0 mm 1 m/s 690 mmHg 87%
    21:00 -8°C° 0 mm 1 m/s 690 mmHg 89%
    22:00 -9°C° 0 mm 1 m/s 690 mmHg 89%
    23:00 -10°C° 0 mm 1 m/s 690 mmHg 89%
    Voir plus